Новороссийка

Россия / Амурская область     52°08′45″N   129°27′52″E
темп.,
°C
ветер,
м/с
пор.,
м/с
влажн.,
%
обл.,
%
осадки,
мм/ч
давл.,
гПа
погр.,
м
12 мая, ср
ср1200:00+8юв4982100 0.0 1013252
03:00+7юв41180100 0.0 1012403
06:00+7вюв51179100 0.0 1010377
09:00+12юв71251100 0.0 10071226
12:00+13юв71252100 0.0 10051689
15:00+9юв71485100 4.7 10051308
18:00+9вюв61181100 0.4 1003981
21:00+8вюв61283100 0.5 1003684
13 мая, чт
чт1300:00+8вюв51287100 0.7 1002622
03:00+7в51190100 1.9 1001477
06:00+8вюв51089100 1.2 1001608
09:00+8вюв4992100 2.9 1002569
12:00+8вюв3789100 1.2 1003459
15:00+9вюв2490100 1.3 1004326
18:00+8вюв1190100 0.0 100579
21:00+7ююв119399 0.0 100710
14 мая, пт
пт1400:00+7з119399 0.0 100710
03:00+5ююв229561 0.0 100811
06:00+6юв259532 0.0 1008150
09:00+11ююв467492 0.0 1008791
12:00+14юв81259100 0.0 1004731
15:00+13ююв61367100 1.1 1001974
18:00+10ю51196100 14.1 1000710
21:00+8ююв3693100 21.3 1000240
15 мая, сб
сб1500:00+7ююв379753 0.1 999249
03:00+7ююв51095100 0.6 997664
06:00+7ююв4994100 0.1 996726
09:00+8юз4481100 0.8 995902
12:00+5зюз2392100 1.8 996776
15:00+6сз3588100 1.9 998702
18:00+8ссз368816 0.1 999256
21:00+6сз489198 0.6 1001183
16 мая, вс
вс1600:00+5всв4882100 0.2 1003313
03:00+4всв1480100 0.3 1004204
06:00+4юз128024 0.0 1004131
09:00+9з126643 0.0 1004754
12:00+12зюз215595 0.0 10031377
15:00+14ююв224733 0.1 10011537
18:00+14вюв4551100 0.0 10001135
21:00+10в5116399 0.0 999511